This is the latest recevied weather packets stored in our database for station/object JR5YHL-13. If no packets are shown the sender has not sent any weather packets the latest 10 day(s).
| Time | Temp. | Humidity | Pressure | Rain* | Wind** | Luminosity | Snow |
|---|---|---|---|---|---|---|---|
| 1777721960 | 19.44° C | 85% | 1012.5 hPa | 0 mm | - | - | - |
| 1777721362 | 19.44° C | 81% | 1012.3 hPa | 0 mm | - | - | - |
| 1777720765 | 19.44° C | 83% | 1012.3 hPa | 0 mm | - | - | - |
| 1777720167 | 19.44° C | 83% | 1012.2 hPa | 0 mm | - | - | - |
| 1777719570 | 19.44° C | 81% | 1012 hPa | 0 mm | - | - | - |
| 1777718972 | 20° C | 79% | 1011.8 hPa | 0 mm | - | - | - |
| 1777718374 | 20° C | 78% | 1011.6 hPa | 0 mm | - | - | - |
| 1777717777 | 20.56° C | 77% | 1011.4 hPa | 0 mm | - | - | - |
| 1777717179 | 20.56° C | 74% | 1011.3 hPa | 0 mm | - | - | - |
| 1777716581 | 21.67° C | 70% | 1011.2 hPa | 0 mm | - | - | - |
| 1777715984 | 22.22° C | 67% | 1011.2 hPa | 0 mm | - | - | - |
| 1777715386 | 22.22° C | 65% | 1011.2 hPa | 0 mm | - | - | - |
| 1777714788 | 22.78° C | 63% | 1011 hPa | 0 mm | - | - | - |
| 1777714191 | 23.33° C | 60% | 1011 hPa | 0 mm | - | - | - |
| 1777713593 | 23.89° C | 58% | 1010.8 hPa | 0 mm | - | - | - |
| 1777712996 | 23.89° C | 54% | 1010.9 hPa | 0 mm | - | - | - |
| 1777712398 | 23.89° C | 51% | 1010.7 hPa | 0 mm | - | - | - |
| 1777711800 | 24.44° C | 47% | 1010.6 hPa | 0 mm | - | - | - |
| 1777711203 | 24.44° C | 47% | 1010.6 hPa | 0 mm | - | - | - |
| 1777710605 | 24.44° C | 44% | 1010.6 hPa | 0 mm | - | - | - |
| 1777710008 | 24.44° C | 43% | 1010.4 hPa | 0 mm | - | - | - |
| 1777709410 | 24.44° C | 46% | 1010.4 hPa | 0 mm | - | - | - |
| 1777708813 | 24.44° C | 46% | 1010.2 hPa | 0 mm | - | - | - |
| 1777708216 | 24.44° C | 44% | 1010.2 hPa | 0 mm | - | - | - |
| 1777707618 | 24.44° C | 42% | 1010.2 hPa | 0 mm | - | - | - |
* Rain latest hour (hover to see other rain measurements)
** Current wind speed in m/s (hover to see current wind gust speed)